Header for Extended Forecast Station List Page

Search by: ID | Name | Date | Parm | Value | Avg | % Avg
Sort by: ID | Name | Date | Parm | Value | Avg | % Avg

Enter search or view all records.

Click on id for station plot
#IDNameDateParmValueAvg% Avg
0ABOM8CLARK FORK-ABOVE MISSOULA11-13-2018DISCHARGE (KAF)411333123
1AFRI1SNAKE-AMERICAN FALLS RESERVOIR11-13-2018INFLOW (KAF)1207149281
2ALFW1PEND OREILLE-ALBENI FALLS DAM11-13-2018INFLOW (KAF)3205444472
3ALPW4SNAKE-NEAR ALPINE11-13-2018DISCHARGE (KAF)374371101
4ANAW1SNAKE-NEAR ANATONE11-13-2018DISCHARGE (KAF)4174607269
5ANTI1HENRYS FORK-AT ST. ANTHONY11-13-2018DISCHARGE (KAF)349341102
6ARAI1SF BOISE-ANDERSON RANCH DAM11-13-2018INFLOW (KAF)637980
7ARDW1ENTIAT-NEAR ARDENVOIR11-13-2018DISCHARGE (KAF)192285
8BELM8CLARK FORK-BELOW MISSOULA11-13-2018DISCHARGE (KAF)602561107
9BERO3MALHEUR-AGENCY VALLEY DAM11-13-2018INFLOW (KAF)112250
10BFEI1KOOTENAI-AT BONNERS FERRY11-13-2018STAGE (FT)MMM
11BFTI1SNAKE-NEAR BLACKFOOT11-13-2018DISCHARGE (KAF)56179571
12BIGI1BOISE-AT GLENWOOD BRIDGE11-13-2018DISCHARGE (KAF)10139257
13BITM8BITTERROOT-NEAR MISSOULA11-13-2018DISCHARGE (KAF)19022087
14BONM8BLACKFOOT-NEAR BONNER11-13-2018DISCHARGE (KAF)186131141
15BONO3COLUMBIA-BONNEVILLE DAM11-13-2018INFLOW (KAF)304023926577
16BRNI1SNAKE-BROWNLEE DAM11-13-2018INFLOW (KAF)2816396571
17BUDW1BUMPING-BUMPING LAKE DAM11-13-2018INFLOW (KAF)123832
18BULO3BULLY CREEK-BULLY CREEK DAM11-13-2018INFLOW (KAF)3465
19CABI1CLARK FORK-CABINET GORGE DAM11-13-2018INFLOW (KAF)3165379783
20CFMM8FLATHEAD-AT COLUMBIA FALLS11-13-2018DISCHARGE (KAF)879115076
21CHDW1CHELAN-LAKE CHELAN DAM11-13-2018INFLOW (KAF)14916192
22CHEI1FALL RIVER-NEAR CHESTER11-13-2018DISCHARGE (KAF)10911198
23CHJW1COLUMBIA-CHIEF JOSEPH DAM11-13-2018INFLOW (KAF)204742235492
24CIBW1COLUMBIA-AT INTL BOUNDARY11-13-2018DISCHARGE (KAF)18071MM
25CLFW1NACHES-NEAR CLIFFDEL11-13-2018DISCHARGE (KAF)5211644
26CLUW1CLE ELUM-CLE ELUM LAKE11-13-2018INFLOW (KAF)6010657
27COEI1COEUR D ALENE-COEUR D ALENE LAKE11-13-2018INFLOW (KAF)33190736
28CSDI1NF PAYETTE-CASCADE DAM11-13-2018INFLOW (KAF)639864
29DEDI1DEADWOOD-NEAR LOWMAN11-13-2018INFLOW (KAF)151978
30DLGM8CLARK FORK-AT DEER LODGE11-13-2018DISCHARGE (KAF)7361118
31DRMM8CLARK FORK-NR DRUMMOND11-13-2018DISCHARGE (KAF)155MM
32DWRI1NF CLEARWATER-DWORSHAK DAM11-13-2018INFLOW (KAF)28661846
33EASW1YAKIMA-AT EASTON11-13-2018DISCHARGE (KAF)647684
34EMMI1PAYETTE-NEAR EMMETT11-13-2018DISCHARGE (KAF)27838472
35FCFM8NF FLATHEAD-NEAR COLUMBIA FALLS11-13-2018DISCHARGE (KAF)15817590
36GCDW1COLUMBIA-GRAND COULEE DAM11-13-2018INFLOW (KAF)1887517162110
37GIBO3UMATILLA-NEAR GIBBON11-13-2018DISCHARGE (KAF)354381
38HALI1BIG WOOD-AT HAILEY11-13-2018DISCHARGE (KAF)343793
39HEII1SNAKE-NEAR HEISE11-13-2018DISCHARGE (KAF)33455960
40HHWM8SF FLATHEAD-HUNGRY HORSE DAM11-13-2018INFLOW (KAF)22423894
41HODO3HOOD-NEAR TUCKER BRIDGE11-13-2018DISCHARGE (KAF)22226384
42HOPI1PEND OREILLE-PEND OREILLE LAKE NR HOPE11-13-2018LAKE ELEVATION (FT)MMM
43HOTI1BRUNEAU-NEAR HOT SPRINGS11-13-2018DISCHARGE (KAF)173254
44HWRI1BIG LOST-AT HOWELL RANCH NEAR CHILLY11-13-2018DISCHARGE (KAF)2119108
45IHDW1SNAKE-ICE HARBOR DAM11-13-2018INFLOW (KAF)5460829366
46IPDI1HENRYS FORK-ISLAND PARK DAM11-13-2018INFLOW (KAF)7811269
47JDAO3COLUMBIA-JOHN DAY DAM11-13-2018INFLOW (KAF)290613256289
48JKSW4SNAKE-NEAR JACKSON11-13-2018DISCHARGE (KAF)321299107
49JLKW4SNAKE-JACKSON LAKE AT DAM11-13-2018INFLOW (KAF)9911586
50KADW1KACHESS-KACHESS DAM11-13-2018INFLOW (KAF)294860
51KEDW1YAKIMA-KEECHELUS LAKE11-13-2018INFLOW (KAF)305159
52KERM8FLATHEAD-KERR DAM11-13-2018INFLOW (KAF)1012149568
53KIOW1YAKIMA-AT KIONA11-13-2018DISCHARGE (KAF)53278268
54LAUW1KETTLE-AT LAURIER11-13-2018DISCHARGE (KAF)10212184
55LEOI1KOOTENAI-AT LEONIA11-13-2018DISCHARGE (KAF)25221357186
56LGDW1SNAKE-LOWER GRANITE DAM11-13-2018INFLOW (KAF)5280816365
57LGSW1SNAKE-LITTLE GOOSE DAM11-13-2018INFLOW (KAF)5280823164
58LLKW1SPOKANE-AT LONGLAKE11-13-2018INFLOW (KAF)608141243
59LMNW1SNAKE-LOWER MONUMENTAL DAM11-13-2018INFLOW (KAF)5460837965
60LUCI1BOISE-LUCKY PEAK DAM11-13-2018INFLOW (KAF)99MM
61LWRI1LITTLE WOOD-LITTLE WOOD DAM11-13-2018INFLOW (KAF)111571
62LYDM8KOOTENAI-LIBBY DAM11-13-2018INFLOW (KAF)75380993
63MACI1BIG LOST-MACKAY RESERVOIR NEAR MACKAY11-13-2018INFLOW (KAF)374872
64MAGI1BIG WOOD-MAGIC DAM11-13-2018INFLOW (KAF)223074
65MCDW1COLUMBIA-MCNARY DAM11-13-2018INFLOW (KAF)277383124289
66MILI1SNAKE-AT MILNER11-13-2018DISCHARGE (KAF)446527
67MODO3DESCHUTES-AT MOODY NR BIGGS11-13-2018DISCHARGE (KAF)1351148391
68MONO3NF JOHN DAY-AT MONUMENT11-13-2018DISCHARGE (KAF)8216649
69MYKO3MCKAY CREEK-NEAR PILOT ROCK11-13-2018DISCHARGE (KAF)2525101
70NACW1NACHES-NEAR NACHES11-13-2018DISCHARGE (KAF)449646
71NOXM8CLARK FORK-NOXON RAPIDS DAM11-13-2018INFLOW (KAF)2875362779
72ORFI1CLEARWATER-AT OROFINO11-13-2018DISCHARGE (KAF)45980257
73OWYO3OWYHEE-OWYHEE DAM11-13-2018INFLOW (KAF)6310957
74PARI1BOISE-NEAR PARMA11-13-2018DISCHARGE (KAF)230214107
75PARW1YAKIMA-NEAR PARKER11-13-2018DISCHARGE (KAF)36953968
76PATW1METHOW-NEAR PATEROS11-13-2018DISCHARGE (KAF)829686
77PDTO3UMATILLA-AT PENDLETON11-13-2018DISCHARGE (KAF)8610980
78PESW1WENATCHEE-AT PESHASTIN11-13-2018DISCHARGE (KAF)19930765
79PIHI1PORTNEUF-AT POCATELLO11-13-2018DISCHARGE (KAF)556881
80PITW1KLICKITAT-NEAR PITT11-13-2018DISCHARGE (KAF)28433884
81PLDI1SF SNAKE-PALISADES DAM11-13-2018INFLOW (KAF)58659898
82PRTI1PRIEST-NEAR PRIEST RIVER11-13-2018DISCHARGE (KAF)6621131
83PRWW1COLUMBIA-PRIEST RAPIDS DAM11-13-2018INFLOW (KAF)2165020709105
84RCCM8ROCK CREEK-NEAR CLINTON11-13-2018DISCHARGE (KAF)5546119
85REXI1HENRYS FORK-AT REXBURG11-13-2018DISCHARGE (KAF)456427107
86RIDI1WILLOW CREEK-RIRIE DAM11-13-2018INFLOW (KAF)9996
87RILW1TIETON-RIMROCK LAKE NEAR RIMROCK11-13-2018INFLOW (KAF)327145
88RRHW1COLUMBIA-ROCKY REACH DAM11-13-2018INFLOW (KAF)214242332292
89SATI1ST MARIES-NEAR SANTA11-13-2018DISCHARGE (KAF)154832
90SERO3JOHN DAY-AT SERVICE CK11-13-2018DISCHARGE (KAF)15428754
91SHYI1SNAKE-NEAR SHELLEY11-13-2018DISCHARGE (KAF)62681677
92SIFI1SNAKE-AB EAGLE ROCK NR IDAHO FALLS11-13-2018DISCHARGE (KAF)64380780
93SJMI1ST JOE-AT ST MARIES11-13-2018STAGE (FT)MMM
94SNAI1SNAKE-AT BLACKFOOT11-13-2018DISCHARGE (KAF)55375274
95SPDI1CLEARWATER-AT SPALDING11-13-2018DISCHARGE (KAF)1105188059
96SPOW1SPOKANE-AT SPOKANE11-13-2018DISCHARGE (KAF)386MM
97SRGM8CLARK FORK-AT ST REGIS11-13-2018DISCHARGE (KAF)758744102
98STRM8ST. REGIS-NEAR ST. REGIS11-13-2018DISCHARGE (KAF)174438
99SWAI1SNAKE-BELOW SWAN FALLS11-13-2018DISCHARGE (KAF)1780262068
100TCHW1WALLA WALLA-NEAR TOUCHET11-13-2018DISCHARGE (KAF)10316164
101TDAO3COLUMBIA-THE DALLES DAM11-13-2018INFLOW (KAF)296713685881
102TEAI1TETON-NEAR ST. ANTHONY11-13-2018DISCHARGE (KAF)11497118
103TNAW1TEANAWAY-BELOW FORKS11-13-2018DISCHARGE (KAF)245047
104TONW1OKANOGAN-NEAR TONASKET11-13-2018DISCHARGE (KAF)25828491
105TRYO3GRANDE RONDE-TROY11-13-2018DISCHARGE (KAF)20938654
106UMAO3UMATILLA-NEAR UMATILLA11-13-2018DISCHARGE (KAF)118111106
107UMTW1YAKIMA-AT UMTANUM11-13-2018DISCHARGE (KAF)22828580
108UNDW1WHITE SALMON-NEAR UNDERWOOD11-13-2018DISCHARGE (KAF)22027680
109VALO3MALHEUR-NEAR VALE11-13-2018DISCHARGE (KAF)213561
110WANW1COLUMBIA-WANAPUM DAM11-13-2018INFLOW (KAF)2165020411106
111WEII1SNAKE-AT WEISER11-13-2018DISCHARGE (KAF)2629382269
112WELW1COLUMBIA-WELLS DAM11-13-2018INFLOW (KAF)208232278791
113WGCM8MF FLATHEAD-NEAR WEST GLACIER11-13-2018DISCHARGE (KAF)10615469
114WHBI1SALMON-AT WHITEBIRD11-13-2018DISCHARGE (KAF)975105892
115WRMO3MALHEUR-WARM SPRINGS DAM11-13-2018INFLOW (KAF)123534
116WSRI1WEISER-NEAR WEISER11-13-2018DISCHARGE (KAF)7612760